Terug naar catalogus

ST5-C

ActiefWetenschapLEO
NORAD 28982·PAYLOAD·🇺🇸 United States

Gelanceerd Mar 22, 2006 vanaf Vandenberg Space Force Base

Loading…

Volgende Passages (komende 24 uur)

TLE

VersSource: Space-Track

Epoch: Sep 14, 2026, 13:22 UTC

1 28982U 06008C   26257.55728594  .00060723  54385-5  62451-3 0  9999
2 28982 105.4528 172.8219 0726487  82.8827 285.4300 14.34922638568761

Volg ST5-C in realtime met AllMySat

Download on the App Store